Location: Ebersheim
(48.3033°N, 7.4991°E)
Time: 15:45:47
(UTC+00:00)

Cosmos 2034 Rocket - Pass Details

Date: 27 February 2020
Orbit: 959 x 1000 km, 82.9° (Epoch: 06 April)

Event Time Altitude Azimuth Distance (km) Brightness Sun altitude
Rises 18:26:24 0° 172° (S) 3,633 6.9 -13.5°
Reaches altitude 10° 18:28:56 10° 168° (SSE) 2,688 6.2 -13.9°
Maximum altitude 18:34:54 56° 92° (E) 1,136 4.0 -14.9°
Drops below altitude 10° 18:40:55 10° 16° (NNE) 2,705 6.2 -15.9°
Sets 18:43:28 0° 13° (NNE) 3,658 6.9 -16.3°
